Time,TemperatureF,DewpointF,PressureIn,WindDirection,WindDirectionDegrees,WindSpeedMPH,WindSpeedGustMPH,Humidity,HourlyPrecipIn,Conditions,Clouds,dailyrainin,SolarRadiationWatts/m^2,SoftwareType,DateUTC
2013-06-30 00:02:00,79.0,73.0,-100.00,SSW,200,12.0,18.0,82,0.00,,,0.00,0.000000,,2013-06-30 04:02:00,
2013-06-30 00:33:00,79.0,72.0,-100.00,SSW,203,14.0,25.0,79,0.00,,,0.00,0.000000,,2013-06-30 04:33:00,
2013-06-30 00:43:00,79.0,72.0,-100.00,SSW,203,14.0,25.0,79,0.00,,,0.00,0.000000,,2013-06-30 04:43:00,
2013-06-30 00:53:00,79.0,72.0,-100.00,SSW,203,14.0,25.0,79,0.00,,,0.00,0.000000,,2013-06-30 04:53:00,
2013-06-30 01:02:00,79.0,72.0,-100.00,SSW,203,14.0,25.0,79,0.00,,,0.00,0.000000,,2013-06-30 05:02:00,
2013-06-30 01:34:00,77.0,71.0,-100.00,SSW,205,12.0,28.0,82,0.00,,,0.00,0.000000,,2013-06-30 05:34:00,
2013-06-30 01:43:00,77.0,71.0,-100.00,SSW,205,12.0,28.0,82,0.00,,,0.00,0.000000,,2013-06-30 05:43:00,
2013-06-30 01:53:00,77.0,71.0,-100.00,SSW,205,12.0,28.0,82,0.00,,,0.00,0.000000,,2013-06-30 05:53:00,
2013-06-30 02:02:00,77.0,71.0,-100.00,SSW,205,12.0,28.0,82,0.00,,,0.00,0.000000,,2013-06-30 06:02:00,
2013-06-30 02:34:00,76.0,71.0,-100.00,SW,214,9.0,24.0,85,0.00,,,0.00,0.000000,,2013-06-30 06:34:00,
2013-06-30 02:43:00,76.0,71.0,-100.00,SW,214,9.0,24.0,85,0.00,,,0.00,0.000000,,2013-06-30 06:43:00,
2013-06-30 02:53:00,76.0,71.0,-100.00,SW,214,9.0,24.0,85,0.00,,,0.00,0.000000,,2013-06-30 06:53:00,
2013-06-30 03:02:00,76.0,71.0,-100.00,SW,214,9.0,24.0,85,0.00,,,0.00,0.000000,,2013-06-30 07:02:00,
2013-06-30 03:33:00,76.0,72.0,-100.00,SSW,198,9.0,16.0,87,0.00,,,0.00,0.000000,,2013-06-30 07:33:00,
2013-06-30 03:44:00,76.0,72.0,-100.00,SSW,198,9.0,16.0,87,0.00,,,0.00,0.000000,,2013-06-30 07:44:00,
2013-06-30 03:53:00,76.0,72.0,-100.00,SSW,198,9.0,16.0,87,0.00,,,0.00,0.000000,,2013-06-30 07:53:00,
2013-06-30 04:02:00,76.0,72.0,-100.00,SSW,198,9.0,16.0,87,0.00,,,0.00,0.000000,,2013-06-30 08:02:00,
2013-06-30 04:34:00,77.0,74.0,-100.00,SSW,196,10.0,20.0,89,0.02,,,0.02,0.000000,,2013-06-30 08:34:00,
2013-06-30 04:42:00,77.0,74.0,-100.00,SSW,196,10.0,20.0,89,0.02,,,0.02,0.000000,,2013-06-30 08:42:00,
2013-06-30 04:53:00,77.0,74.0,-100.00,SSW,196,10.0,20.0,89,0.02,,,0.02,0.000000,,2013-06-30 08:53:00,
2013-06-30 05:02:00,77.0,74.0,-100.00,SSW,196,10.0,20.0,89,0.02,,,0.02,0.000000,,2013-06-30 09:02:00,
2013-06-30 05:34:00,76.0,72.0,-100.00,SSW,199,11.0,23.0,87,0.04,,,0.06,0.000000,,2013-06-30 09:34:00,
2013-06-30 05:43:00,76.0,72.0,-100.00,SSW,199,11.0,23.0,87,0.04,,,0.06,0.000000,,2013-06-30 09:43:00,
2013-06-30 05:53:00,76.0,72.0,-100.00,SSW,199,11.0,23.0,87,0.04,,,0.06,0.000000,,2013-06-30 09:53:00,
2013-06-30 06:02:00,76.0,72.0,-100.00,SSW,199,11.0,23.0,87,0.04,,,0.06,0.000000,,2013-06-30 10:02:00,
2013-06-30 06:34:00,75.0,71.0,-100.00,SSW,204,11.0,24.0,87,0.01,,,0.07,0.000000,,2013-06-30 10:34:00,
2013-06-30 06:43:00,75.0,71.0,-100.00,SSW,204,11.0,24.0,87,0.01,,,0.07,0.000000,,2013-06-30 10:43:00,
2013-06-30 06:53:00,75.0,71.0,-100.00,SSW,204,11.0,24.0,87,0.01,,,0.07,0.000000,,2013-06-30 10:53:00,
2013-06-30 07:02:00,75.0,71.0,-100.00,SSW,204,11.0,24.0,87,0.01,,,0.07,0.000000,,2013-06-30 11:02:00,
2013-06-30 07:33:00,73.0,70.0,-100.00,SW,235,12.0,22.0,91,0.14,,,0.21,2.000000,,2013-06-30 11:33:00,
2013-06-30 07:43:00,73.0,70.0,-100.00,SW,235,12.0,22.0,91,0.14,,,0.21,2.000000,,2013-06-30 11:43:00,
2013-06-30 07:53:00,73.0,70.0,-100.00,SW,235,12.0,22.0,91,0.14,,,0.21,2.000000,,2013-06-30 11:53:00,
2013-06-30 08:02:00,73.0,70.0,-100.00,SW,235,12.0,22.0,91,0.14,,,0.21,2.000000,,2013-06-30 12:02:00,
2013-06-30 08:33:00,74.0,72.0,-100.00,SW,226,5.0,18.0,92,0.04,,,0.25,48.000000,,2013-06-30 12:33:00,
2013-06-30 08:43:00,74.0,72.0,-100.00,SW,226,5.0,18.0,92,0.04,,,0.25,48.000000,,2013-06-30 12:43:00,
2013-06-30 08:52:00,74.0,72.0,-100.00,SW,226,5.0,18.0,92,0.04,,,0.25,48.000000,,2013-06-30 12:52:00,
2013-06-30 09:02:00,74.0,72.0,-100.00,SW,226,5.0,18.0,92,0.04,,,0.25,48.000000,,2013-06-30 13:02:00,
2013-06-30 09:34:00,76.0,73.0,-100.00,SSW,205,5.0,8.0,91,0.00,,,0.25,215.000000,,2013-06-30 13:34:00,
2013-06-30 09:44:00,76.0,73.0,-100.00,SSW,205,5.0,8.0,91,0.00,,,0.25,215.000000,,2013-06-30 13:44:00,
2013-06-30 09:53:00,76.0,73.0,-100.00,SSW,205,5.0,8.0,91,0.00,,,0.25,215.000000,,2013-06-30 13:53:00,
2013-06-30 10:02:00,76.0,73.0,-100.00,SSW,205,5.0,8.0,91,0.00,,,0.25,215.000000,,2013-06-30 14:02:00,
2013-06-30 10:33:00,77.0,74.0,-100.00,SSW,195,5.0,10.0,89,0.03,,,-99.99,266.000000,,2013-06-30 14:33:00,
2013-06-30 10:44:00,77.0,74.0,-100.00,SSW,195,5.0,10.0,89,0.03,,,-99.99,266.000000,,2013-06-30 14:44:00,
2013-06-30 10:52:00,77.0,74.0,-100.00,SSW,195,5.0,10.0,89,0.03,,,-99.99,266.000000,,2013-06-30 14:52:00,
2013-06-30 11:02:00,77.0,74.0,-100.00,SSW,195,5.0,10.0,89,0.03,,,-99.99,266.000000,,2013-06-30 15:02:00,
2013-06-30 11:35:00,74.0,71.0,-100.00,SW,231,11.0,22.0,91,0.23,,,0.51,128.000000,,2013-06-30 15:35:00,
2013-06-30 11:44:00,74.0,71.0,-100.00,SW,231,11.0,22.0,91,0.23,,,0.51,128.000000,,2013-06-30 15:44:00,
2013-06-30 11:53:00,74.0,71.0,-100.00,SW,231,11.0,22.0,91,0.23,,,0.51,128.000000,,2013-06-30 15:53:00,
2013-06-30 12:01:00,74.0,71.0,-100.00,SW,231,11.0,22.0,91,0.23,,,0.51,128.000000,,2013-06-30 16:01:00,
2013-06-30 12:34:00,73.0,69.0,-100.00,SW,228,7.0,19.0,87,0.15,,,0.66,150.000000,,2013-06-30 16:34:00,
2013-06-30 12:44:00,73.0,69.0,-100.00,SW,228,7.0,19.0,87,0.15,,,0.66,150.000000,,2013-06-30 16:44:00,
2013-06-30 12:53:00,73.0,69.0,-100.00,SW,228,7.0,19.0,87,0.15,,,0.66,150.000000,,2013-06-30 16:53:00,
2013-06-30 13:02:00,73.0,69.0,-100.00,SW,228,7.0,19.0,87,0.15,,,0.66,150.000000,,2013-06-30 17:02:00,
2013-06-30 13:34:00,77.0,73.0,-100.00,South,182,7.0,14.0,87,0.00,,,0.66,282.000000,,2013-06-30 17:34:00,
2013-06-30 13:43:00,77.0,73.0,-100.00,South,182,7.0,14.0,87,0.00,,,0.66,282.000000,,2013-06-30 17:43:00,
2013-06-30 13:53:00,77.0,73.0,-100.00,South,182,7.0,14.0,87,0.00,,,0.66,282.000000,,2013-06-30 17:53:00,
2013-06-30 14:02:00,77.0,73.0,-100.00,South,182,7.0,14.0,87,0.00,,,0.66,282.000000,,2013-06-30 18:02:00,
2013-06-30 14:34:00,78.0,73.0,-100.00,SSW,193,8.0,16.0,86,0.00,,,0.66,404.000000,,2013-06-30 18:34:00,
2013-06-30 14:43:00,78.0,73.0,-100.00,SSW,193,8.0,16.0,86,0.00,,,0.66,404.000000,,2013-06-30 18:43:00,
2013-06-30 14:53:00,78.0,73.0,-100.00,SSW,193,8.0,16.0,86,0.00,,,0.66,404.000000,,2013-06-30 18:53:00,
2013-06-30 15:01:00,78.0,73.0,-100.00,SSW,193,8.0,16.0,86,0.00,,,0.66,404.000000,,2013-06-30 19:01:00,
2013-06-30 15:33:00,78.0,73.0,-100.00,SSW,192,9.0,16.0,85,0.00,,,0.66,331.000000,,2013-06-30 19:33:00,
2013-06-30 15:43:00,78.0,73.0,-100.00,SSW,192,9.0,16.0,85,0.00,,,0.66,331.000000,,2013-06-30 19:43:00,
2013-06-30 15:53:00,78.0,73.0,-100.00,SSW,192,9.0,16.0,85,0.00,,,0.66,331.000000,,2013-06-30 19:53:00,
2013-06-30 16:02:00,78.0,73.0,-100.00,SSW,192,9.0,16.0,85,0.00,,,0.66,331.000000,,2013-06-30 20:02:00,
2013-06-30 16:34:00,79.0,73.0,-100.00,South,185,11.0,19.0,81,0.00,,,0.66,496.000000,,2013-06-30 20:34:00,
2013-06-30 16:42:00,79.0,73.0,-100.00,South,185,11.0,19.0,81,0.00,,,0.66,496.000000,,2013-06-30 20:42:00,
2013-06-30 16:52:00,79.0,73.0,-100.00,South,185,11.0,19.0,81,0.00,,,0.66,496.000000,,2013-06-30 20:52:00,
2013-06-30 17:01:00,79.0,73.0,-100.00,South,185,11.0,19.0,81,0.00,,,0.66,496.000000,,2013-06-30 21:01:00,
2013-06-30 17:34:00,81.0,74.0,-100.00,SSW,193,10.0,18.0,80,0.00,,,0.66,688.000000,,2013-06-30 21:34:00,
2013-06-30 17:43:00,81.0,74.0,-100.00,SSW,193,10.0,18.0,80,0.00,,,0.66,688.000000,,2013-06-30 21:43:00,
2013-06-30 17:53:00,81.0,74.0,-100.00,SSW,193,10.0,18.0,80,0.00,,,0.66,688.000000,,2013-06-30 21:53:00,
2013-06-30 18:01:00,81.0,74.0,-100.00,SSW,193,10.0,18.0,80,0.00,,,0.66,688.000000,,2013-06-30 22:01:00,
2013-06-30 18:34:00,80.0,74.0,-100.00,South,187,11.0,18.0,82,0.00,,,0.66,411.000000,,2013-06-30 22:34:00,
2013-06-30 18:43:00,80.0,74.0,-100.00,South,187,11.0,18.0,82,0.00,,,0.66,411.000000,,2013-06-30 22:43:00,
2013-06-30 18:53:00,80.0,74.0,-100.00,South,187,11.0,18.0,82,0.00,,,0.66,411.000000,,2013-06-30 22:53:00,
2013-06-30 19:02:00,80.0,74.0,-100.00,South,187,11.0,18.0,82,0.00,,,0.66,411.000000,,2013-06-30 23:02:00,
2013-06-30 19:33:00,79.0,75.0,-100.00,SSW,194,11.0,21.0,87,0.00,,,0.66,203.000000,,2013-06-30 23:33:00,
2013-06-30 19:44:00,79.0,75.0,-100.00,SSW,194,11.0,21.0,87,0.00,,,0.66,203.000000,,2013-06-30 23:44:00,
2013-06-30 19:53:00,79.0,75.0,-100.00,SSW,194,11.0,21.0,87,0.00,,,0.66,203.000000,,2013-06-30 23:53:00,
2013-06-30 20:01:00,79.0,75.0,-100.00,SSW,194,11.0,21.0,87,0.00,,,0.66,203.000000,,2013-07-01 00:01:00,
2013-06-30 20:33:00,78.0,74.0,-100.00,SSW,194,10.0,20.0,88,0.00,,,0.66,88.000000,,2013-07-01 00:33:00,
2013-06-30 20:42:00,78.0,74.0,-100.00,SSW,194,10.0,20.0,88,0.00,,,0.66,88.000000,,2013-07-01 00:42:00,
2013-06-30 20:52:00,78.0,74.0,-100.00,SSW,194,10.0,20.0,88,0.00,,,0.66,88.000000,,2013-07-01 00:52:00,
2013-06-30 21:01:00,78.0,74.0,-100.00,SSW,194,10.0,20.0,88,0.00,,,0.66,88.000000,,2013-07-01 01:01:00,
2013-06-30 21:34:00,78.0,74.0,-100.00,South,184,9.0,16.0,89,0.00,,,0.66,2.000000,,2013-07-01 01:34:00,
2013-06-30 21:43:00,78.0,74.0,-100.00,South,184,9.0,16.0,89,0.00,,,0.66,2.000000,,2013-07-01 01:43:00,
2013-06-30 21:52:00,78.0,74.0,-100.00,South,184,9.0,16.0,89,0.00,,,0.66,2.000000,,2013-07-01 01:52:00,
2013-06-30 22:02:00,78.0,74.0,-100.00,South,184,9.0,16.0,89,0.00,,,0.66,2.000000,,2013-07-01 02:02:00,
2013-06-30 22:33:00,78.0,74.0,-100.00,South,191,7.0,14.0,88,0.00,,,0.66,0.000000,,2013-07-01 02:33:00,
2013-06-30 22:44:00,78.0,74.0,-100.00,South,191,7.0,14.0,88,0.00,,,0.66,0.000000,,2013-07-01 02:44:00,
2013-06-30 22:54:00,78.0,74.0,-100.00,South,191,7.0,14.0,88,0.00,,,0.66,0.000000,,2013-07-01 02:54:00,
2013-06-30 23:01:00,78.0,74.0,-100.00,South,191,7.0,14.0,88,0.00,,,0.66,0.000000,,2013-07-01 03:01:00,
2013-06-30 23:33:00,78.0,74.0,-100.00,South,189,7.0,15.0,87,0.00,,,0.66,0.000000,,2013-07-01 03:33:00,
2013-06-30 23:43:00,78.0,74.0,-100.00,South,189,7.0,15.0,87,0.00,,,0.66,0.000000,,2013-07-01 03:43:00,
2013-06-30 23:52:00,78.0,74.0,-100.00,South,189,7.0,15.0,87,0.00,,,0.66,0.000000,,2013-07-01 03:52:00,